Weather History for KTUL - October, 2014

Change the Weather History Date:

Wednesday, October 8, 2014

  Actual Average Record
Temperature  
Mean Temperature 78 °F 64 °F  
Max Temperature 87 °F 75 °F 97 °F (1979)
Min Temperature 69 °F 53 °F 30 °F (2000)
Degree Days  
Heating Degree Days 0 4  
Month to date heating degree days 18 25  
Since 1 July heating degree days 31 49  
Cooling Degree Days 13 3  
Month to date cooling degree days 55 28  
Year to date cooling degree days 1989 1993  
Growing Degree Days 28 (Base 50)    
Moisture  
Dew Point 68 °F    
Average Humidity 74    
Maximum Humidity 90    
Minimum Humidity 57    
Precipitation  
Precipitation 0.00 in 0.12 in 4.71 in (1936)
Month to date precipitation 1.17 0.99  
Year to date precipitation 21.88 32.73  
Sea Level Pressure  
Sea Level Pressure 29.94 in    
Wind  
Wind Speed 12 mph (SSE)    
Max Wind Speed 20 mph    
Max Gust Speed 27 mph    
Visibility 10 miles    
Events      
T = Trace of Precipitation, MM = Missing Value Source: NWS Daily Summary

Daily Weather History Graph

Daily Weather History Graph

Search for Another Location

Airport or City:

Trip Planner

Search our weather history database for the weather conditions in past years. The results will help you decide how hot, cold, wet, or windy it might be!

Date:

Astronomy

Oct. 08, 2014 Rise Set
Actual Time 7:24 AM CDT 6:57 PM CDT
Civil Twilight 6:58 AM CDT 7:22 PM CDT
Nautical Twilight 6:29 AM CDT 7:52 PM CDT
Astronomical Twilight 5:59 AM CDT 8:22 PM CDT
Moon 7:14 PM CDT (10/8) 7:31 AM CDT (10/8)
Length of Visible Light 12h 23m
Length of Day
11h 32m
Full, 100% of the Moon is Illuminated
Oct 8
Full
Oct 15
Last Quarter
Oct 23
New
Oct 30
First Quarter
Nov 6
Full

Hourly Weather History & Observations

Time (CDT) Temp. Heat Index Dew Point Humidity Pressure Visibility Wind Dir Wind Speed Gust Speed Precip Events Conditions
12:53 AM 73.0 °F - 63.0 °F 71% 29.93 in 10.0 mi ENE 4.6 mph - N/A   Mostly Cloudy
1:53 AM 72.0 °F - 62.1 °F 71% 29.93 in 10.0 mi East 3.5 mph - N/A   Mostly Cloudy
2:53 AM 72.0 °F - 63.0 °F 73% 29.94 in 10.0 mi NE 3.5 mph - N/A   Mostly Cloudy
3:53 AM 71.1 °F - 63.0 °F 75% 29.93 in 10.0 mi ENE 3.5 mph - N/A   Overcast
4:53 AM 70.0 °F - 64.9 °F 84% 29.94 in 10.0 mi East 4.6 mph - N/A   Overcast
5:53 AM 70.0 °F - 66.9 °F 90% 29.94 in 10.0 mi SE 6.9 mph - N/A   Overcast
6:53 AM 70.0 °F - 66.9 °F 90% 29.95 in 10.0 mi ESE 8.1 mph - N/A   Mostly Cloudy
7:53 AM 72.0 °F - 68.0 °F 87% 29.96 in 10.0 mi SE 8.1 mph - N/A   Overcast
8:53 AM 73.9 °F - 69.1 °F 85% 29.97 in 10.0 mi SE 9.2 mph - N/A   Overcast
9:53 AM 78.1 °F - 69.1 °F 74% 29.98 in 10.0 mi South 19.6 mph - N/A   Overcast
10:53 AM 80.1 °F 83.2 °F 70.0 °F 71% 29.99 in 10.0 mi South 13.8 mph - N/A   Overcast
11:53 AM 81.0 °F 84.1 °F 69.1 °F 67% 29.99 in 10.0 mi South 12.7 mph - N/A   Overcast
12:53 PM 84.0 °F 88.4 °F 70.0 °F 63% 29.97 in 10.0 mi South 17.3 mph - N/A   Overcast
1:53 PM 86.0 °F 90.1 °F 69.1 °F 57% 29.94 in 10.0 mi South 15.0 mph - N/A   Overcast
2:53 PM 86.0 °F 90.7 °F 70.0 °F 59% 29.92 in 10.0 mi South 16.1 mph 24.2 mph N/A   Overcast
3:53 PM 84.9 °F 89.4 °F 70.0 °F 61% 29.92 in 10.0 mi South 18.4 mph 23.0 mph N/A   Overcast
4:53 PM 84.9 °F 89.4 °F 70.0 °F 61% 29.91 in 10.0 mi South 16.1 mph 21.9 mph N/A   Overcast
5:53 PM 84.0 °F 88.4 °F 70.0 °F 63% 29.90 in 10.0 mi South 17.3 mph - N/A   Overcast
6:53 PM 82.0 °F 85.9 °F 70.0 °F 67% 29.90 in 10.0 mi South 12.7 mph - N/A   Mostly Cloudy
7:53 PM 80.1 °F 83.2 °F 70.0 °F 71% 29.91 in 10.0 mi South 13.8 mph - N/A   Mostly Cloudy
8:53 PM 78.1 °F - 69.1 °F 74% 29.92 in 10.0 mi South 16.1 mph - N/A   Mostly Cloudy
9:53 PM 77.0 °F - 68.0 °F 74% 29.93 in 10.0 mi South 13.8 mph - N/A   Mostly Cloudy
10:53 PM 75.0 °F - 68.0 °F 79% 29.93 in 10.0 mi South 13.8 mph - N/A   Overcast
11:53 PM 75.0 °F - 68.0 °F 79% 29.92 in 10.0 mi South 13.8 mph - N/A   Overcast